Total_Precipitation_Accumulation
0.26 0.06 0.01 0.00 0.00 0.00 0.00 0.00 0.00 0.00 0.00 0.00 0.00 0.00 0.00 0.00 0.00 0.00 0.00 0.00 0.00 0.00 0.00 0.00 0.00 0.00 0.00 0.00 0.00 0.00 0.00 0.00 0.00 0.00 0.00 0.00 0.00 0.00 0.00 0.00 0.00 0.00 0.00 0.00 0.00 0.00 0.01 0.00 0.00 0.01 0.02 0.02 0.00 0.00
0.47 0.14 0.04 0.00 0.00 0.00 0.00 0.00 0.00 0.01 0.00 0.00 0.00 0.00 0.00 0.00 0.00 0.00 0.00 0.00 0.00 0.00 0.00 0.00 0.00 0.00 0.00 0.00 0.00 0.00 0.00 0.00 0.00 0.00 0.00 0.00 0.00 0.00 0.00 0.00 0.00 0.00 0.00 0.00 0.01 0.00 0.00 0.00 0.02 0.02 0.01 0.01 0.00 0.00
0.58 0.25 0.07 0.01 0.00 0.00 0.00 0.00 0.00 0.01 0.00 0.01 0.01 0.01 0.00 0.00 0.00 0.00 0.00 0.00 0.00 0.00 0.00 0.00 0.00 0.00 0.00 0.00 0.00 0.00 0.00 0.00 0.00 0.00 0.00 0.00 0.01 0.00 0.00 0.00 0.00 0.00 0.00 0.00 0.01 0.00 0.00 0.01 0.01 0.01 0.00 0.00 0.00 0.00
0.45 0.32 0.11 0.01 0.00 0.00 0.00 0.00 0.00 0.00 0.00 0.00 0.01 0.01 0.00 0.00 0.00 0.00 0.00 0.00 0.00 0.00 0.03 0.01 0.00 0.00 0.00 0.00 0.00 0.00 0.00 0.00 0.00 0.00 0.00 0.01 0.01 0.00 0.00 0.00 0.00 0.00 0.00 0.01 0.01 0.00 0.00 0.01 0.01 0.00 0.00 0.01 0.01 0.01
0.35 0.25 0.14 0.03 0.00 0.00 0.00 0.00 0.00 0.00 0.01 0.01 0.01 0.01 0.01 0.00 0.00 0.00 0.00 0.00 0.00 0.04 0.03 0.00 0.00 0.00 0.00 0.00 0.00 0.00 0.00 0.00 0.00 0.00 0.01 0.00 0.00 0.00 0.01 0.00 0.00 0.00 0.00 0.01 0.01 0.01 0.01 0.03 0.02 0.01 0.02 0.02 0.02 0.00
0.31 0.21 0.13 0.03 0.01 0.01 0.01 0.01 0.01 0.01 0.01 0.01 0.01 0.01 0.00 0.00 0.00 0.00 0.00 0.00 0.00 0.00 0.01 0.02 0.00 0.00 0.00 0.00 0.00 0.00 0.00 0.00 0.00 0.01 0.00 0.00 0.00 0.01 0.00 0.00 0.00 0.00 0.00 0.00 0.01 0.01 0.03 0.02 0.01 0.00 0.00 0.00 0.00 0.00
0.20 0.16 0.11 0.04 0.00 0.00 0.00 0.00 0.01 0.00 0.01 0.01 0.01 0.00 0.00 0.00 0.00 0.02 0.02 0.01 0.00 0.01 0.03 0.02 0.01 0.00 0.00 0.00 0.00 0.01 0.01 0.01 0.02 0.04 0.01 0.00 0.00 0.04 0.01 0.00 0.00 0.00 0.00 0.00 0.00 0.02 0.03 0.01 0.01 0.00 0.00 0.00 0.00 0.00
0.12 0.06 0.04 0.03 0.01 0.01 0.00 0.00 0.00 0.01 0.01 0.01 0.01 0.00 0.00 0.00 0.00 0.03 0.01 0.00 0.00 0.03 0.04 0.02 0.00 0.00 0.00 0.00 0.01 0.02 0.07 0.11 0.07 0.04 0.02 0.00 0.01 0.04 0.01 0.00 0.00 0.00 0.00 0.00 0.01 0.02 0.01 0.01 0.00 0.00 0.00 0.00 0.00 0.01
0.05 0.02 0.01 0.01 0.00 0.01 0.00 0.00 0.01 0.02 0.01 0.01 0.02 0.01 0.01 0.01 0.02 0.01 0.00 0.00 0.00 0.08 0.05 0.01 0.00 0.00 0.00 0.00 0.00 0.00 0.03 0.03 0.01 0.01 0.00 0.01 0.00 0.00 0.00 0.00 0.00 0.00 0.00 0.01 0.00 0.00 0.00 0.00 0.00 0.00 0.00 0.02 0.05 0.12
0.03 0.01 0.00 0.00 0.00 0.00 0.00 0.01 0.01 0.04 0.12 0.19 0.20 0.15 0.03 0.04 0.04 0.01 0.02 0.03 0.02 0.01 0.00 0.00 0.00 0.00 0.00 0.00 0.00 0.00 0.00 0.01 0.00 0.00 0.00 0.00 0.00 0.00 0.00 0.00 0.00 0.00 0.00 0.00 0.00 0.00 0.01 0.01 0.01 0.02 0.04 0.10 0.15 0.10
0.04 0.02 0.00 0.00 0.00 0.00 0.00 0.01 0.02 0.12 0.55 0.67 0.58 0.30 0.15 0.16 0.05 0.08 0.06 0.07 0.02 0.00 0.00 0.00 0.00 0.00 0.00 0.01 0.01 0.03 0.04 0.02 0.01 0.00 0.00 0.01 0.00 0.00 0.00 0.00 0.00 0.00 0.00 0.00 0.00 0.00 0.02 0.05 0.13 0.24 0.23 0.13 0.03 0.01
0.02 0.01 0.00 0.00 0.00 0.01 0.01 0.04 0.07 0.13 0.39 0.68 0.54 0.29 0.28 0.56 0.39 0.44 0.47 0.17 0.03 0.00 0.01 0.01 0.00 0.01 0.03 0.03 0.06 0.10 0.12 0.10 0.07 0.01 0.03 0.02 0.00 0.00 0.00 0.00 0.00 0.00 0.00 0.00 0.03 0.10 0.18 0.23 0.23 0.11 0.03 0.02 0.02 0.01
0.00 0.00 0.00 0.00 0.00 0.01 0.01 0.03 0.04 0.10 0.26 0.59 0.73 0.76 0.79 1.08 1.10 0.81 0.44 0.16 0.04 0.01 0.01 0.01 0.02 0.03 0.06 0.06 0.15 0.26 0.36 0.27 0.10 0.07 0.04 0.04 0.02 0.02 0.04 0.05 0.06 0.07 0.09 0.15 0.21 0.18 0.11 0.05 0.03 0.03 0.03 0.02 0.01 0.01
0.00 0.00 0.00 0.00 0.00 0.02 0.03 0.02 0.06 0.07 0.16 0.49 0.78 1.09 0.96 0.95 0.68 0.49 0.21 0.08 0.06 0.04 0.02 0.02 0.05 0.07 0.09 0.11 0.35 0.55 0.56 0.30 0.29 0.16 0.09 0.11 0.19 0.26 0.17 0.12 0.10 0.07 0.05 0.03 0.01 0.01 0.01 0.01 0.01 0.00 0.00 0.00 0.00 0.00
0.00 0.00 0.00 0.00 0.00 0.03 0.04 0.04 0.05 0.03 0.05 0.14 0.24 0.43 0.48 0.40 0.30 0.21 0.18 0.17 0.17 0.17 0.24 0.29 0.35 0.32 0.30 0.45 0.49 0.39 0.34 0.31 0.26 0.27 0.34 0.34 0.29 0.23 0.07 0.01 0.01 0.00 0.00 0.00 0.00 0.00 0.00 0.00 0.00 0.00 0.00 0.00 0.00 0.00
0.00 0.00 0.00 0.00 0.00 0.01 0.01 0.08 0.04 0.04 0.03 0.01 0.06 0.16 0.20 0.18 0.20 0.23 0.23 0.24 0.26 0.33 0.35 0.37 0.38 0.40 0.45 0.43 0.33 0.31 0.29 0.31 0.34 0.18 0.10 0.06 0.05 0.06 0.09 0.06 0.00 0.00 0.00 0.00 0.00 0.00 0.00 0.00 0.00 0.00 0.00 0.00 0.00 0.00
0.00 0.01 0.00 0.00 0.00 0.02 0.03 0.03 0.03 0.01 0.08 0.00 0.00 0.02 0.05 0.06 0.08 0.11 0.12 0.12 0.11 0.15 0.20 0.16 0.17 0.20 0.20 0.22 0.24 0.21 0.24 0.18 0.12 0.08 0.03 0.04 0.06 0.03 0.01 0.00 0.00 0.00 0.00 0.00 0.00 0.00 0.00 0.00 0.00 0.00 0.00 0.00 0.00 0.00
0.02 0.02 0.00 0.00 0.01 0.01 0.05 0.03 0.04 0.01 0.00 0.00 0.00 0.00 0.01 0.01 0.01 0.01 0.00 0.00 0.00 0.01 0.01 0.02 0.02 0.04 0.09 0.11 0.12 0.07 0.03 0.02 0.02 0.01 0.01 0.03 0.01 0.00 0.00 0.00 0.00 0.00 0.00 0.00 0.00 0.00 0.00 0.00 0.00 0.00 0.00 0.00 0.00 0.01
0.02 0.04 0.01 0.02 0.01 0.01 0.05 0.07 0.02 0.01 0.00 0.00 0.00 0.01 0.01 0.01 0.00 0.00 0.01 0.00 0.00 0.00 0.00 0.00 0.01 0.00 0.01 0.00 0.00 0.00 0.00 0.00 0.00 0.00 0.00 0.00 0.00 0.00 0.00 0.00 0.00 0.00 0.00 0.00 0.00 0.00 0.00 0.00 0.00 0.00 0.00 0.01 0.01 0.02
0.01 0.04 0.07 0.11 0.01 0.00 0.01 0.01 0.01 0.01 0.01 0.00 0.00 0.00 0.00 0.01 0.01 0.01 0.01 0.00 0.00 0.00 0.00 0.00 0.00 0.00 0.00 0.00 0.00 0.00 0.00 0.00 0.00 0.00 0.00 0.00 0.00 0.00 0.00 0.00 0.00 0.00 0.00 0.00 0.00 0.00 0.00 0.00 0.01 0.02 0.03 0.03 0.02 0.02
0.04 0.16 0.23 0.21 0.16 0.01 0.00 0.00 0.00 0.00 0.00 0.00 0.00 0.00 0.00 0.00 0.00 0.01 0.01 0.00 0.01 0.02 0.00 0.00 0.00 0.00 0.00 0.00 0.00 0.00 0.00 0.00 0.00 0.00 0.00 0.00 0.00 0.00 0.00 0.00 0.00 0.00 0.00 0.00 0.00 0.00 0.02 0.03 0.03 0.04 0.05 0.01 0.01 0.01
0.07 0.21 0.25 0.27 0.30 0.13 0.02 0.00 0.00 0.00 0.00 0.00 0.00 0.01 0.00 0.00 0.01 0.01 0.00 0.00 0.00 0.00 0.00 0.00 0.00 0.00 0.00 0.00 0.00 0.00 0.00 0.00 0.00 0.00 0.00 0.00 0.00 0.00 0.00 0.00 0.00 0.01 0.01 0.01 0.02 0.02 0.01 0.02 0.04 0.04 0.02 0.01 0.01 0.02
0.18 0.32 0.33 0.29 0.28 0.14 0.09 0.02 0.03 0.00 0.00 0.00 0.02 0.01 0.00 0.00 0.00 0.00 0.00 0.00 0.00 0.00 0.00 0.00 0.00 0.00 0.00 0.01 0.00 0.00 0.00 0.00 0.00 0.00 0.00 0.00 0.00 0.00 0.01 0.01 0.02 0.03 0.02 0.02 0.04 0.03 0.04 0.03 0.02 0.01 0.01 0.03 0.04 0.03
0.24 0.43 0.44 0.33 0.16 0.14 0.08 0.07 0.04 0.03 0.01 0.01 0.01 0.01 0.00 0.00 0.00 0.01 0.01 0.00 0.01 0.00 0.00 0.01 0.00 0.00 0.00 0.00 0.00 0.00 0.00 0.00 0.00 0.00 0.00 0.00 0.00 0.01 0.01 0.01 0.03 0.03 0.03 0.04 0.03 0.02 0.02 0.01 0.02 0.04 0.04 0.04 0.02 0.04
0.41 0.36 0.32 0.26 0.14 0.07 0.03 0.03 0.05 0.03 0.02 0.01 0.01 0.01 0.01 0.00 0.01 0.01 0.01 0.04 0.04 0.03 0.02 0.01 0.01 0.01 0.01 0.01 0.02 0.01 0.00 0.00 0.00 0.00 0.01 0.01 0.01 0.01 0.01 0.02 0.02 0.03 0.04 0.04 0.03 0.03 0.03 0.03 0.03 0.03 0.03 0.04 0.06 0.07
0.35 0.20 0.13 0.09 0.06 0.07 0.04 0.02 0.01 0.02 0.02 0.06 0.06 0.03 0.01 0.03 0.03 0.03 0.05 0.08 0.07 0.06 0.05 0.03 0.02 0.02 0.02 0.02 0.02 0.01 0.00 0.00 0.00 0.00 0.01 0.01 0.02 0.03 0.03 0.02 0.02 0.02 0.04 0.04 0.06 0.06 0.03 0.02 0.03 0.04 0.05 0.05 0.07 0.10
0.15 0.09 0.04 0.03 0.06 0.13 0.17 0.14 0.13 0.14 0.11 0.09 0.06 0.05 0.07 0.09 0.07 0.07 0.07 0.09 0.08 0.08 0.05 0.02 0.01 0.01 0.02 0.02 0.01 0.00 0.00 0.00 0.00 0.00 0.01 0.02 0.03 0.04 0.06 0.09 0.11 0.09 0.03 0.04 0.06 0.08 0.10 0.08 0.07 0.05 0.07 0.07 0.08 0.12
0.05 0.07 0.08 0.10 0.17 0.19 0.17 0.14 0.16 0.16 0.16 0.15 0.10 0.10 0.11 0.07 0.06 0.07 0.08 0.09 0.07 0.05 0.03 0.01 0.00 0.00 0.00 0.01 0.01 0.01 0.00 0.00 0.00 0.00 0.02 0.05 0.07 0.05 0.03 0.04 0.05 0.03 0.04 0.06 0.07 0.07 0.09 0.10 0.10 0.09 0.10 0.12 0.15 0.17
0.08 0.10 0.09 0.09 0.06 0.03 0.04 0.06 0.07 0.07 0.08 0.07 0.04 0.03 0.04 0.04 0.06 0.06 0.05 0.04 0.03 0.01 0.01 0.01 0.02 0.01 0.01 0.01 0.02 0.02 0.01 0.00 0.00 0.00 0.00 0.01 0.03 0.03 0.02 0.03 0.03 0.03 0.03 0.03 0.04 0.05 0.07 0.10 0.09 0.14 0.18 0.20 0.17 0.13
0.01 0.01 0.01 0.00 0.00 0.01 0.01 0.02 0.02 0.03 0.02 0.02 0.01 0.01 0.02 0.03 0.06 0.05 0.02 0.02 0.02 0.04 0.04 0.04 0.02 0.01 0.01 0.01 0.01 0.03 0.05 0.02 0.01 0.02 0.03 0.03 0.03 0.03 0.02 0.02 0.02 0.03 0.03 0.04 0.03 0.03 0.04 0.04 0.06 0.14 0.08 0.08 0.10 0.10
0.01 0.01 0.01 0.00 0.01 0.02 0.01 0.00 0.00 0.01 0.03 0.02 0.01 0.03 0.08 0.06 0.06 0.04 0.03 0.05 0.03 0.01 0.01 0.01 0.01 0.01 0.01 0.01 0.02 0.02 0.02 0.02 0.02 0.02 0.02 0.03 0.02 0.02 0.02 0.02 0.02 0.03 0.03 0.04 0.04 0.05 0.05 0.06 0.08 0.10 0.05 0.06 0.07 0.07
0.01 0.01 0.02 0.03 0.04 0.01 0.00 0.00 0.00 0.00 0.01 0.01 0.04 0.03 0.04 0.04 0.03 0.03 0.02 0.02 0.01 0.01 0.01 0.01 0.01 0.02 0.02 0.02 0.03 0.03 0.03 0.02 0.01 0.01 0.02 0.02 0.02 0.01 0.01 0.01 0.02 0.03 0.04 0.04 0.05 0.07 0.07 0.07 0.07 0.07 0.07 0.06 0.06 0.06
0.01 0.01 0.01 0.01 0.00 0.00 0.00 0.00 0.00 0.00 0.01 0.03 0.05 0.04 0.04 0.04 0.03 0.03 0.03 0.01 0.01 0.01 0.01 0.01 0.01 0.01 0.03 0.02 0.01 0.02 0.01 0.01 0.01 0.01 0.01 0.02 0.01 0.01 0.01 0.02 0.03 0.04 0.04 0.05 0.07 0.07 0.06 0.06 0.06 0.06 0.05 0.05 0.04 0.04